Pagosa Springs, CO

4:18 AM MDT on May 28, 2018 (GMT -0600)
Pagosa Springs

Weather History for KPSO - March, 2013

Change the Weather History Date:

Tuesday, March 5, 2013

  Actual Average (KE33) Record (KE33)
Temperature  
Mean Temperature 30 °F -  
Max Temperature 48 °F 41 °F 51 °F (2001)
Min Temperature 13 °F 20 °F 1 °F (1997)
Degree Days  
Heating Degree Days 34    
Moisture  
Dew Point 7 °F    
Average Humidity 44    
Maximum Humidity 79    
Minimum Humidity 12    
Precipitation  
Precipitation 0.00 in - - ()
Sea Level Pressure  
Sea Level Pressure 30.25 in    
Wind  
Wind Speed 1 mph (SSW)    
Max Wind Speed 6 mph    
Max Gust Speed -    
Visibility 10 miles    
Events      
Averages and records for this station are not official NWS values.
T = Trace of Precipitation, MM = Missing Value Source: NWS Daily Summary

Daily Weather History Graph

Daily Weather History Graph

Search for Another Location

Airport or City:

Astronomy

Mar. 05, 2013 Rise Set
Actual Time 6:33 AM MST 6:06 PM MST
Civil Twilight 6:07 AM MST 6:32 PM MST
Nautical Twilight 5:37 AM MST 7:02 PM MST
Astronomical Twilight 5:06 AM MST 7:32 PM MST
Moon 1:42 AM MST (3/5) 11:54 AM MST (3/5)
Length of Visible Light 12h 25m
Length of Day
11h 33m
Last Quarter, 40% of the Moon is Illuminated
Mar 5
Last Quarter
Mar 11
New
Mar 19
First Quarter
Mar 27
Full
Apr 2
Last Quarter

Hourly Weather History & Observations

Time (MST) Temp. Windchill Dew Point Humidity Pressure Visibility Wind Dir Wind Speed Gust Speed Precip Events Conditions
12:15 AM 26.4 °F - 14.0 °F 59% 30.15 in 10.0 mi Calm Calm - N/A   Clear
12:35 AM 24.1 °F - 14.2 °F 66% 30.16 in 10.0 mi Calm Calm - N/A   Clear
12:55 AM 23.2 °F - 14.0 °F 68% 30.16 in 10.0 mi Calm Calm - N/A   Clear
1:15 AM 21.2 °F - 14.4 °F 75% 30.18 in 10.0 mi Calm Calm - N/A   Clear
1:35 AM 20.8 °F - 14.7 °F 77% 30.19 in 10.0 mi Calm Calm - N/A   Clear
1:55 AM 17.6 °F - 12.2 °F 79% 30.20 in 10.0 mi Calm Calm - N/A   Clear
2:15 AM 21.0 °F - 11.3 °F 66% 30.20 in 10.0 mi Calm Calm - N/A   Clear
2:35 AM 18.3 °F - 11.8 °F 76% 30.21 in 10.0 mi Calm Calm - N/A   Clear
2:55 AM 20.5 °F - 9.5 °F 63% 30.21 in 10.0 mi Calm Calm - N/A   Clear
3:15 AM 19.0 °F - 11.3 °F 72% 30.22 in 10.0 mi Calm Calm - N/A   Clear
3:35 AM 16.5 °F - 10.8 °F 78% 30.23 in 10.0 mi Calm Calm - N/A   Clear
3:55 AM 16.7 °F - 10.4 °F 76% 30.24 in 10.0 mi Calm Calm - N/A   Clear
4:15 AM 14.7 °F - 8.8 °F 77% 30.24 in 10.0 mi Calm Calm - N/A   Clear
4:35 AM 18.0 °F - 8.8 °F 67% 30.25 in 10.0 mi Calm Calm - N/A   Clear
4:55 AM 14.9 °F - 9.5 °F 79% 30.27 in 10.0 mi Calm Calm - N/A   Clear
5:15 AM 15.4 °F - 9.5 °F 77% 30.27 in 10.0 mi Calm Calm - N/A   Clear
6:15 AM 14.4 °F - 6.1 °F 70% 30.29 in 10.0 mi Calm Calm - N/A   Clear
6:35 AM 13.3 °F - 7.7 °F 78% 30.29 in 10.0 mi Calm Calm - N/A   Clear
6:55 AM 15.6 °F - 8.1 °F 72% 30.29 in 10.0 mi Calm Calm - N/A   Clear
7:15 AM 17.1 °F - 7.2 °F 65% 30.29 in 10.0 mi Calm Calm - N/A   Clear
7:35 AM 16.2 °F - 6.6 °F 66% 30.30 in 10.0 mi Calm Calm - N/A   Clear
7:55 AM 20.8 °F - 7.3 °F 56% 30.30 in 10.0 mi Calm Calm - N/A   Clear
8:15 AM 22.5 °F - 7.3 °F 52% 30.31 in 10.0 mi Calm Calm - N/A   Clear
8:35 AM 25.3 °F - 8.1 °F 48% 30.32 in 10.0 mi Calm Calm - N/A   Clear
8:55 AM 26.4 °F 22.4 °F 7.7 °F 45% 30.31 in 10.0 mi WSW 3.5 mph - N/A   Clear
9:15 AM 28.9 °F - 8.6 °F 42% 30.31 in 10.0 mi Calm Calm - N/A   Clear
9:35 AM 31.3 °F - 9.9 °F 41% 30.31 in 10.0 mi Calm Calm - N/A   Clear
9:55 AM 33.3 °F 28.9 °F 8.4 °F 35% 30.30 in 10.0 mi SSW 4.6 mph - N/A   Clear
10:15 AM 34.0 °F 31.0 °F 11.5 °F 39% 30.30 in 10.0 mi WSW 3.5 mph - N/A   Clear
10:35 AM 36.5 °F 32.7 °F 10.4 °F 34% 30.31 in 10.0 mi SSW 4.6 mph - N/A   Clear
10:55 AM 37.2 °F - 9.0 °F 31% 30.30 in 10.0 mi Calm Calm - N/A   Clear
11:15 AM 38.3 °F - 7.2 °F 28% 30.29 in 10.0 mi Calm Calm - N/A   Clear
11:35 AM 39.6 °F 36.3 °F 4.6 °F 23% 30.29 in 10.0 mi SW 4.6 mph - N/A   Clear
11:55 AM 40.5 °F 37.3 °F 2.1 °F 20% 30.28 in 10.0 mi SSW 4.6 mph - N/A   Clear
12:15 PM 41.0 °F - 0.1 °F 18% 30.28 in 10.0 mi Calm Calm - N/A   Clear
12:35 PM 41.5 °F - -1.5 °F 16% 30.27 in 10.0 mi Calm Calm - N/A   Clear
12:55 PM 43.3 °F - 3.0 °F 19% 30.27 in 10.0 mi Calm Calm - N/A   Clear
1:15 PM 44.2 °F 41.0 °F 4.5 °F 19% 30.27 in 10.0 mi SW 5.8 mph - N/A   Clear
1:35 PM 43.9 °F - 3.9 °F 19% 30.26 in 10.0 mi Calm Calm - N/A   Clear
1:55 PM 45.7 °F - 4.8 °F 19% 30.26 in 10.0 mi Calm Calm - N/A   Clear
2:15 PM 46.4 °F 45.2 °F 4.3 °F 18% 30.25 in 10.0 mi South 3.5 mph - N/A   Clear
2:35 PM 46.9 °F - 2.3 °F 16% 30.24 in 10.0 mi South 3.5 mph - N/A   Clear
2:55 PM 47.3 °F - 2.5 °F 16% 30.24 in 10.0 mi South 4.6 mph - N/A   Clear
3:15 PM 47.7 °F - 4.1 °F 17% 30.24 in 10.0 mi SSW 3.5 mph - N/A   Clear
3:35 PM 47.8 °F - 3.0 °F 16% 30.24 in 10.0 mi SSW 4.6 mph - N/A   Clear
3:55 PM 47.8 °F - 0.5 °F 14% 30.23 in 10.0 mi SW 3.5 mph - N/A   Clear
4:15 PM 48.2 °F - -3.5 °F 12% 30.23 in 10.0 mi SW 4.6 mph - N/A   Clear
4:35 PM 46.6 °F - -3.6 °F 12% 30.22 in 10.0 mi Calm Calm - N/A   Clear
4:55 PM 46.4 °F - -2.9 °F 13% 30.22 in 10.0 mi Calm Calm - N/A   Clear
5:15 PM 45.7 °F - -4.7 °F 12% 30.22 in 10.0 mi Calm Calm - N/A   Clear
5:35 PM 36.7 °F - 12.6 °F 37% 30.22 in 10.0 mi Calm Calm - N/A   Clear
5:55 PM 34.5 °F - 11.3 °F 38% 30.22 in 10.0 mi Calm Calm - N/A   Clear
6:15 PM 34.3 °F - 6.3 °F 31% 30.23 in 10.0 mi Calm Calm - N/A   Clear
6:35 PM 32.9 °F - 2.1 °F 27% 30.23 in 10.0 mi Calm Calm - N/A   Clear
6:55 PM 31.6 °F - 0.9 °F 27% 30.24 in 10.0 mi Calm Calm - N/A   Clear
7:15 PM 30.9 °F - 6.8 °F 36% 30.24 in 10.0 mi Calm Calm - N/A   Clear
7:35 PM 28.6 °F 23.5 °F 6.1 °F 39% 30.24 in 10.0 mi NE 4.6 mph - N/A   Clear
7:55 PM 29.3 °F 24.3 °F 6.6 °F 38% 30.24 in 10.0 mi NNE 4.6 mph - N/A   Clear
8:15 PM 29.3 °F 25.6 °F 5.5 °F 37% 30.24 in 10.0 mi ENE 3.5 mph - N/A   Clear
8:35 PM 27.7 °F - 7.7 °F 43% 30.24 in 10.0 mi Calm Calm - N/A   Clear
8:55 PM 27.5 °F - 5.0 °F 38% 30.25 in 10.0 mi Calm Calm - N/A   Clear
9:15 PM 24.6 °F - 7.0 °F 47% 30.26 in 10.0 mi Calm Calm - N/A   Clear
9:35 PM 25.0 °F - 7.7 °F 48% 30.26 in 10.0 mi Calm Calm - N/A   Clear
9:55 PM 24.3 °F - 8.4 °F 51% 30.26 in 10.0 mi Calm Calm - N/A   Clear
10:15 PM 24.4 °F - 8.8 °F 51% 30.26 in 10.0 mi Calm Calm - N/A   Clear
10:35 PM 23.5 °F - 8.4 °F 53% 30.26 in 10.0 mi Calm Calm - N/A   Clear
10:55 PM 27.1 °F - 6.6 °F 42% 30.26 in 10.0 mi Calm Calm - N/A   Clear
11:15 PM 23.9 °F - 9.5 °F 54% 30.26 in 10.0 mi Calm Calm - N/A   Clear
11:35 PM 26.4 °F - 9.1 °F 48% 30.25 in 10.0 mi Calm Calm - N/A   Clear
11:55 PM 23.5 °F - 8.2 °F 52% 30.25 in 10.0 mi Calm Calm - N/A   Clear